| time (UTC) | temp C | wind direction | speed KPH | gust KPH | rain 1hr cm | rain 24hr cm | rain mn cm | humidity % | barometer mb |
| 20260510061055 | 11 | 302 | 11.3 | 22.5 | 0.00 | 0.76 | 0.00 | 86 | 1009.8 |
| 20260510060555 | 11 | 312 | 12.9 | 24.1 | 0.00 | 0.76 | 0.00 | 86 | 1009.8 |
| 20260510060059 | 11 | 307 | 16.1 | 29.0 | 0.00 | 0.76 | 0.00 | 87 | 1009.9 |
| 20260510055554 | 11 | 264 | 17.7 | 32.2 | 0.00 | 0.76 | 0.00 | 86 | 1010.0 |
| 20260510055053 | 11 | 295 | 17.7 | 32.2 | 0.00 | 0.76 | 0.00 | 86 | 1009.9 |
| 20260510054557 | 11 | 259 | 17.7 | 29.0 | 0.00 | 0.76 | 0.00 | 86 | 1009.9 |
| 20260510054050 | 11 | 264 | 12.9 | 27.4 | 0.00 | 0.76 | 0.00 | 86 | 1009.8 |
| 20260510053549 | 11 | 294 | 9.7 | 22.5 | 0.00 | 0.76 | 0.00 | 87 | 1009.8 |
| 20260510053047 | 11 | 301 | 11.3 | 20.9 | 0.00 | 0.76 | 0.00 | 88 | 1009.8 |
| 20260510052546 | 10 | 274 | 11.3 | 20.9 | 0.00 | 0.76 | 0.00 | 89 | 1009.6 |
| 20260510052045 | 10 | 291 | 6.4 | 11.3 | 0.00 | 0.76 | 0.00 | 89 | 1009.4 |
| 20260510051611 | 10 | 294 | 4.8 | 11.3 | 0.00 | 0.76 | 0.00 | 90 | 1009.2 |
| 20260510051044 | 10 | 274 | 4.8 | 11.3 | 0.00 | 0.76 | 0.00 | 90 | 1009.1 |
| 20260510050541 | 10 | 312 | 1.6 | 9.7 | 0.00 | 0.76 | 0.00 | 90 | 1008.9 |
| 20260510050041 | 10 | 297 | 1.6 | 9.7 | 0.00 | 0.76 | 0.00 | 90 | 1009.0 |
| 20260510045540 | 10 | 8 | 1.6 | 9.7 | 0.00 | 0.76 | 0.00 | 90 | 1008.9 |
| 20260510045039 | 10 | 77 | 1.6 | 6.4 | 0.00 | 0.76 | 0.00 | 90 | 1008.9 |
| 20260510044539 | 10 | 75 | 0.0 | 4.8 | 0.00 | 0.76 | 0.00 | 90 | 1008.9 |
| 20260510044039 | 9 | 71 | 0.0 | 4.8 | 0.00 | 0.76 | 0.00 | 89 | 1008.8 |
| 20260510043536 | 10 | 317 | 0.0 | 3.2 | 0.00 | 0.76 | 0.00 | 89 | 1008.9 |
| 20260510043045 | 10 | 49 | 0.0 | 6.4 | 0.00 | 0.76 | 0.00 | 89 | 1008.9 |
| 20260510042535 | 10 | 84 | 0.0 | 6.4 | 0.00 | 0.76 | 0.00 | 89 | 1008.9 |
| 20260510042034 | 10 | 183 | 0.0 | 6.4 | 0.00 | 0.76 | 0.00 | 89 | 1009.0 |
| 20260510041534 | 10 | 27 | 0.0 | 4.8 | 0.00 | 0.76 | 0.00 | 88 | 1009.0 |
| 20260510041033 | 10 | 89 | 0.0 | 4.8 | 0.00 | 0.76 | 0.00 | 88 | 1009.0 |
| 20260510040532 | 10 | 74 | 0.0 | 4.8 | 0.00 | 0.76 | 0.00 | 88 | 1009.0 |
| 20260510040032 | 10 | 307 | 0.0 | 6.4 | 0.00 | 0.76 | 0.00 | 87 | 1009.1 |
| 20260510035531 | 10 | 232 | 0.0 | 6.4 | 0.00 | 0.76 | 0.76 | 87 | 1009.0 |
| 20260510035034 | 10 | 309 | 1.6 | 8.0 | 0.00 | 0.76 | 0.76 | 87 | 1009.0 |
| 20260510034530 | 10 | 347 | 0.0 | 11.3 | 0.00 | 0.76 | 0.76 | 86 | 1009.0 |
| 20260510034029 | 10 | 314 | 1.6 | 11.3 | 0.00 | 0.76 | 0.76 | 86 | 1008.8 |
| 20260510033528 | 10 | 321 | 1.6 | 12.9 | 0.00 | 0.76 | 0.76 | 86 | 1008.7 |
| 20260510033029 | 10 | 304 | 1.6 | 11.3 | 0.00 | 0.76 | 0.76 | 86 | 1008.6 |
| 20260510032528 | 10 | 138 | 4.8 | 11.3 | 0.00 | 0.76 | 0.76 | 86 | 1008.5 |
| 20260510032028 | 10 | 331 | 4.8 | 11.3 | 0.00 | 0.76 | 0.76 | 87 | 1008.7 |
| 20260510031545 | 10 | 302 | 3.2 | 11.3 | 0.00 | 0.76 | 0.76 | 87 | 1008.7 |
| 20260510031031 | 10 | 39 | 3.2 | 11.3 | 0.00 | 0.76 | 0.76 | 87 | 1008.7 |
| 20260510030531 | 10 | 333 | 3.2 | 9.7 | 0.00 | 0.76 | 0.76 | 88 | 1008.7 |
| 20260510030028 | 10 | 30 | 1.6 | 9.7 | 0.00 | 0.76 | 0.76 | 88 | 1008.7 |
| 20260510025528 | 10 | 188 | 1.6 | 6.4 | 0.00 | 0.76 | 0.76 | 88 | 1008.7 |
| 20260510025030 | 10 | 58 | 1.6 | 8.0 | 0.00 | 0.76 | 0.76 | 89 | 1008.6 |
| 20260510024530 | 10 | 89 | 1.6 | 11.3 | 0.00 | 0.76 | 0.76 | 89 | 1008.5 |
| 20260510024026 | 10 | 33 | 1.6 | 11.3 | 0.00 | 0.76 | 0.76 | 89 | 1008.6 |
| 20260510023527 | 10 | 307 | 1.6 | 6.4 | 0.00 | 0.76 | 0.76 | 89 | 1008.7 |
| 20260510023041 | 10 | 263 | 1.6 | 8.0 | 0.00 | 0.76 | 0.76 | 90 | 1008.8 |
| 20260510022526 | 10 | 71 | 0.0 | 6.4 | 0.00 | 0.76 | 0.76 | 90 | 1009.0 |
| 20260510022026 | 10 | 61 | 0.0 | 8.0 | 0.00 | 0.76 | 0.76 | 90 | 1009.0 |
| 20260510021526 | 10 | 77 | 1.6 | 8.0 | 0.00 | 0.76 | 0.76 | 89 | 1008.9 |
| 20260510021025 | 10 | 60 | 1.6 | 6.4 | 0.00 | 0.76 | 0.76 | 89 | 1008.8 |
| 20260510020525 | 10 | 99 | 1.6 | 6.4 | 0.00 | 0.76 | 0.76 | 88 | 1008.7 |
| 20260510020025 | 10 | 68 | 0.0 | 6.4 | 0.00 | 0.76 | 0.76 | 87 | 1008.8 |
| 20260510015526 | 10 | 87 | 1.6 | 8.0 | 0.00 | 0.76 | 0.76 | 87 | 1008.8 |
| 20260510015025 | 10 | 62 | 1.6 | 4.8 | 0.00 | 0.76 | 0.76 | 87 | 1008.8 |
| 20260510014526 | 11 | 80 | 0.0 | 4.8 | 0.00 | 0.76 | 0.76 | 87 | 1008.8 |
| 20260510014025 | 11 | 75 | 0.0 | 6.4 | 0.00 | 0.76 | 0.76 | 87 | 1008.9 |
| 20260510013525 | 11 | 76 | 0.0 | 3.2 | 0.00 | 0.76 | 0.76 | 87 | 1008.7 |
| 20260510013024 | 11 | 51 | 0.0 | 1.6 | 0.00 | 0.76 | 0.76 | 87 | 1008.8 |
| 20260510012527 | 10 | 48 | 0.0 | 4.8 | 0.00 | 0.76 | 0.76 | 87 | 1008.9 |
| 20260510012024 | 11 | 79 | 0.0 | 4.8 | 0.00 | 0.76 | 0.76 | 87 | 1008.9 |
| 20260510011526 | 11 | 360 | 0.0 | 4.8 | 0.00 | 0.76 | 0.76 | 87 | 1008.8 |
| 20260510011027 | 11 | 335 | 0.0 | 8.0 | 0.00 | 0.76 | 0.76 | 87 | 1008.9 |
| 20260510010520 | 11 | 20 | 0.0 | 8.0 | 0.00 | 0.76 | 0.76 | 87 | 1008.7 |
| 20260510010026 | 11 | 337 | 0.0 | 8.0 | 0.00 | 0.76 | 0.76 | 87 | 1008.8 |
| 20260510005511 | 10 | 53 | 1.6 | 8.0 | 0.00 | 0.76 | 0.76 | 88 | 1008.7 |
| 20260510005015 | 10 | 250 | 1.6 | 6.4 | 0.00 | 0.76 | 0.76 | 89 | 1008.8 |
| 20260510004525 | 10 | 259 | 0.0 | 4.8 | 0.00 | 0.76 | 0.76 | 89 | 1008.8 |
| 20260510004011 | 10 | 81 | 0.0 | 9.7 | 0.00 | 0.76 | 0.76 | 90 | 1008.8 |
| 20260510003516 | 10 | 41 | 0.0 | 9.7 | 0.00 | 0.76 | 0.76 | 90 | 1008.6 |
| 20260510003017 | 10 | 84 | 0.0 | 3.2 | 0.00 | 0.76 | 0.76 | 90 | 1008.5 |
| 20260510002524 | 10 | 115 | 0.0 | 6.4 | 0.00 | 0.76 | 0.76 | 90 | 1008.4 |
| 20260510002011 | 10 | 78 | 0.0 | 1.6 | 0.00 | 0.76 | 0.76 | 90 | 1008.3 |
| 20260510001518 | 10 | 86 | 0.0 | 3.2 | 0.00 | 0.76 | 0.76 | 90 | 1008.4 |
| 20260510001020 | 10 | 99 | 0.0 | 3.2 | 0.00 | 0.76 | 0.76 | 90 | 1008.4 |
| 20260510000509 | 10 | 99 | 0.0 | 1.6 | 0.00 | 0.76 | 0.76 | 89 | 1008.5 |
| 20260510000015 | 10 | 290 | 0.0 | 3.2 | 0.00 | 0.76 | 0.76 | 89 | 1008.4 |
| 20260509235525 | 10 | 291 | 0.0 | 3.2 | 0.00 | 0.76 | 0.76 | 89 | 1008.5 |
| 20260509235009 | 11 | 306 | 0.0 | 1.6 | 0.00 | 0.76 | 0.76 | 88 | 1008.5 |
| 20260509234520 | 11 | 307 | 0.0 | 1.6 | 0.00 | 0.76 | 0.76 | 88 | 1008.2 |
| 20260509234024 | 11 | 307 | 0.0 | 1.6 | 0.00 | 0.76 | 0.76 | 87 | 1008.1 |
| 20260509233510 | 11 | 307 | 0.0 | 1.6 | 0.00 | 0.76 | 0.76 | 87 | 1008.0 |
| 20260509233015 | 11 | 124 | 0.0 | 1.6 | 0.00 | 0.76 | 0.76 | 87 | 1007.8 |
| 20260509232523 | 11 | 264 | 0.0 | 1.6 | 0.00 | 0.76 | 0.76 | 87 | 1007.9 |
| 20260509232007 | 11 | 264 | 0.0 | 3.2 | 0.00 | 0.76 | 0.76 | 86 | 1007.8 |
| 20260509231517 | 11 | 264 | 0.0 | 9.7 | 0.00 | 0.76 | 0.76 | 85 | 1007.8 |
| 20260509231021 | 11 | 266 | 0.0 | 9.7 | 0.00 | 0.76 | 0.76 | 85 | 1007.9 |
| 20260509230511 | 11 | 297 | 0.0 | 6.4 | 0.00 | 0.76 | 0.76 | 86 | 1007.9 |
| 20260509230018 | 11 | 291 | 1.6 | 6.4 | 0.00 | 0.76 | 0.76 | 85 | 1007.9 |
| 20260509225510 | 11 | 276 | 0.0 | 12.9 | 0.00 | 0.76 | 0.76 | 85 | 1007.7 |
| 20260509225015 | 11 | 278 | 4.8 | 12.9 | 0.00 | 0.76 | 0.76 | 85 | 1007.7 |
| 20260509224526 | 11 | 290 | 3.2 | 9.7 | 0.00 | 0.76 | 0.76 | 86 | 1007.7 |
| 20260509224010 | 11 | 301 | 4.8 | 9.7 | 0.00 | 0.76 | 0.76 | 85 | 1007.7 |
| 20260509223517 | 11 | 312 | 0.0 | 8.0 | 0.00 | 0.76 | 0.76 | 85 | 1007.7 |
| 20260509223025 | 11 | 295 | 3.2 | 9.7 | 0.00 | 0.76 | 0.76 | 85 | 1007.7 |
| 20260509222510 | 11 | 295 | 3.2 | 12.9 | 0.00 | 0.76 | 0.76 | 85 | 1007.8 |
| 20260509222015 | 11 | 295 | 0.0 | 12.9 | 0.00 | 0.76 | 0.76 | 85 | 1007.7 |
| 20260509221509 | 11 | 297 | 3.2 | 11.3 | 0.00 | 0.76 | 0.76 | 85 | 1007.8 |
| 20260509221013 | 11 | 298 | 3.2 | 8.0 | 0.00 | 0.76 | 0.76 | 85 | 1007.9 |
| 20260509220524 | 11 | 276 | 3.2 | 8.0 | 0.00 | 0.76 | 0.76 | 85 | 1007.9 |
| 20260509220010 | 11 | 276 | 0.0 | 8.0 | 0.00 | 0.76 | 0.76 | 85 | 1008.0 |
| 20260509215521 | 11 | 281 | 1.6 | 17.7 | 0.00 | 0.76 | 0.76 | 84 | 1008.0 |
| 20260509215024 | 11 | 258 | 8.0 | 17.7 | 0.00 | 0.76 | 0.76 | 84 | 1008.0 |
| 20260509214515 | 11 | 302 | 6.4 | 16.1 | 0.00 | 0.76 | 0.76 | 85 | 1008.2 |
| 20260509214021 | 11 | 285 | 6.4 | 11.3 | 0.00 | 0.76 | 0.76 | 86 | 1008.1 |
| 20260509213510 | 11 | 316 | 1.6 | 11.3 | 0.00 | 0.76 | 0.76 | 86 | 1008.1 |
| 20260509213017 | 11 | 224 | 1.6 | 11.3 | 0.00 | 0.76 | 0.76 | 86 | 1008.1 |
| 20260509212527 | 11 | 173 | 3.2 | 14.5 | 0.00 | 0.76 | 0.76 | 87 | 1008.2 |
| 20260509212015 | 11 | 283 | 8.0 | 14.5 | 0.00 | 0.76 | 0.76 | 88 | 1008.1 |
| 20260509211547 | 11 | 296 | 0.0 | 8.0 | 0.00 | 0.76 | 0.76 | 89 | 1008.1 |
| 20260509211009 | 11 | 278 | 1.6 | 8.0 | 0.00 | 0.76 | 0.76 | 89 | 1008.3 |
| 20260509210519 | 11 | 312 | 0.0 | 8.0 | 0.00 | 0.76 | 0.76 | 90 | 1008.2 |
| 20260509210005 | 11 | 294 | 1.6 | 6.4 | 0.00 | 0.76 | 0.76 | 90 | 1008.2 |
| 20260509205515 | 10 | 300 | 1.6 | 6.4 | 0.00 | 0.76 | 0.76 | 90 | 1008.3 |
| 20260509205021 | 10 | 295 | 1.6 | 6.4 | 0.00 | 0.76 | 0.76 | 91 | 1008.3 |
| 20260509204510 | 10 | 250 | 3.2 | 6.4 | 0.00 | 0.76 | 0.76 | 92 | 1008.3 |
| 20260509204015 | 10 | 158 | 0.0 | 9.7 | 0.00 | 0.76 | 0.76 | 92 | 1008.3 |
| 20260509203526 | 10 | 253 | 0.0 | 9.7 | 0.00 | 0.76 | 0.76 | 93 | 1008.3 |
| 20260509203022 | 10 | 298 | 1.6 | 9.7 | 0.00 | 0.76 | 0.76 | 93 | 1008.3 |
| 20260509202519 | 10 | 287 | 1.6 | 9.7 | 0.00 | 0.76 | 0.76 | 93 | 1008.5 |
| 20260509202004 | 10 | 328 | 0.0 | 4.8 | 0.00 | 0.76 | 0.76 | 93 | 1008.5 |
| 20260509201520 | 10 | 342 | 0.0 | 4.8 | 0.00 | 0.76 | 0.76 | 93 | 1008.5 |
| 20260509201021 | 10 | 30 | 0.0 | 8.0 | 0.00 | 0.76 | 0.76 | 93 | 1008.6 |
| 20260509200530 | 10 | 269 | 1.6 | 8.0 | 0.00 | 0.76 | 0.76 | 93 | 1008.5 |
| 20260509200013 | 10 | 335 | 0.0 | 4.8 | 0.00 | 0.76 | 0.76 | 93 | 1008.6 |
| 20260509195521 | 10 | 328 | 0.0 | 8.0 | 0.00 | 0.76 | 0.76 | 94 | 1008.6 |
| 20260509195020 | 10 | 71 | 0.0 | 8.0 | 0.00 | 0.76 | 0.76 | 94 | 1008.8 |
| 20260509194510 | 10 | 65 | 1.6 | 8.0 | 0.00 | 0.76 | 0.76 | 94 | 1008.8 |
| 20260509194016 | 10 | 51 | 0.0 | 6.4 | 0.00 | 0.76 | 0.76 | 94 | 1008.8 |
| 20260509193507 | 10 | 314 | 1.6 | 4.8 | 0.00 | 0.76 | 0.76 | 94 | 1008.9 |
| 20260509193012 | 10 | 315 | 0.0 | 6.4 | 0.03 | 0.76 | 0.76 | 94 | 1008.9 |
| 20260509192520 | 9 | 117 | 1.6 | 6.4 | 0.03 | 0.76 | 0.76 | 94 | 1008.9 |
| 20260509192009 | 9 | 6 | 0.0 | 6.4 | 0.03 | 0.76 | 0.76 | 94 | 1009.1 |
| 20260509191520 | 9 | 73 | 1.6 | 6.4 | 0.03 | 0.76 | 0.76 | 94 | 1009.1 |
| 20260509191027 | 9 | 1 | 0.0 | 8.0 | 0.03 | 0.76 | 0.76 | 94 | 1009.1 |
| 20260509190512 | 9 | 24 | 1.6 | 9.7 | 0.03 | 0.76 | 0.76 | 94 | 1009.1 |
| 20260509190023 | 9 | 136 | 1.6 | 9.7 | 0.03 | 0.76 | 0.76 | 94 | 1009.2 |
| 20260509185526 | 9 | 114 | 1.6 | 8.0 | 0.03 | 0.76 | 0.76 | 94 | 1009.3 |
| 20260509185013 | 9 | 59 | 1.6 | 8.0 | 0.03 | 0.76 | 0.76 | 94 | 1009.3 |
| 20260509184521 | 9 | 316 | 1.6 | 8.0 | 0.03 | 0.76 | 0.76 | 94 | 1009.4 |
| 20260509184006 | 9 | 23 | 1.6 | 8.0 | 0.03 | 0.76 | 0.76 | 94 | 1009.4 |
| 20260509183515 | 9 | 53 | 1.6 | 9.7 | 0.03 | 0.76 | 0.76 | 94 | 1009.4 |
| 20260509183023 | 9 | 262 | 1.6 | 9.7 | 0.00 | 0.71 | 0.71 | 94 | 1009.4 |
| 20260509182511 | 9 | 198 | 0.0 | 8.0 | 0.00 | 0.71 | 0.71 | 94 | 1009.3 |
| 20260509182021 | 9 | 64 | 1.6 | 8.0 | 0.00 | 0.71 | 0.71 | 94 | 1009.3 |
| 20260509181508 | 9 | 228 | 0.0 | 9.7 | 0.03 | 0.71 | 0.71 | 94 | 1009.3 |
| 20260509181014 | 9 | 94 | 1.6 | 9.7 | 0.03 | 0.71 | 0.71 | 94 | 1009.2 |
| 20260509180522 | 9 | 114 | 3.2 | 8.0 | 0.05 | 0.71 | 0.71 | 94 | 1009.3 |
| 20260509180009 | 9 | 86 | 0.0 | 11.3 | 0.05 | 0.71 | 0.71 | 94 | 1009.4 |
| 20260509175519 | 9 | 82 | 4.8 | 12.9 | 0.05 | 0.81 | 0.71 | 94 | 1009.4 |
| 20260509175019 | 9 | 82 | 1.6 | 8.0 | 0.08 | 0.81 | 0.71 | 94 | 1009.5 |
| 20260509174509 | 9 | 70 | 1.6 | 6.4 | 0.10 | 0.81 | 0.71 | 94 | 1009.5 |
| 20260509174014 | 9 | 46 | 1.6 | 11.3 | 0.10 | 0.81 | 0.71 | 95 | 1009.5 |
| 20260509173525 | 9 | 40 | 3.2 | 11.3 | 0.10 | 0.81 | 0.71 | 95 | 1009.4 |
| 20260509173033 | 9 | 172 | 1.6 | 11.3 | 0.13 | 0.81 | 0.71 | 95 | 1009.4 |
| 20260509172529 | 9 | 70 | 1.6 | 8.0 | 0.15 | 0.81 | 0.71 | 95 | 1009.4 |
| 20260509172019 | 9 | 64 | 0.0 | 9.7 | 0.15 | 0.81 | 0.71 | 95 | 1009.6 |
| 20260509171528 | 9 | 55 | 1.6 | 9.7 | 0.13 | 0.79 | 0.71 | 95 | 1009.5 |
| 20260509171010 | 9 | 141 | 1.6 | 8.0 | 0.15 | 0.79 | 0.71 | 95 | 1009.6 |
| 20260509170517 | 9 | 250 | 1.6 | 11.3 | 0.13 | 0.76 | 0.69 | 96 | 1009.7 |
| 20260509170006 | 8 | 70 | 1.6 | 11.3 | 0.15 | 0.76 | 0.69 | 96 | 1009.7 |
| 20260509165520 | 8 | 295 | 1.6 | 11.3 | 0.13 | 0.76 | 0.66 | 96 | 1009.9 |
| 20260509165019 | 8 | 4 | 0.0 | 11.3 | 0.13 | 0.76 | 0.66 | 96 | 1009.9 |
| 20260509164529 | 8 | 325 | 1.6 | 6.4 | 0.13 | 0.71 | 0.64 | 96 | 1009.9 |
| 20260509164015 | 8 | 51 | 1.6 | 8.0 | 0.13 | 0.71 | 0.64 | 96 | 1009.9 |
| 20260509163524 | 8 | 60 | 1.6 | 9.7 | 0.13 | 0.71 | 0.64 | 96 | 1009.9 |
| 20260509163014 | 8 | 30 | 1.6 | 11.3 | 0.13 | 0.71 | 0.61 | 96 | 1010.1 |
| 20260509162513 | 8 | 29 | 1.6 | 9.7 | 0.10 | 0.69 | 0.58 | 96 | 1010.1 |
| 20260509162013 | 8 | 259 | 1.6 | 9.7 | 0.13 | 0.69 | 0.58 | 96 | 1010.2 |
| 20260509161520 | 8 | 249 | 0.0 | 6.4 | 0.13 | 0.69 | 0.58 | 96 | 1010.3 |
| 20260509161028 | 8 | 73 | 0.0 | 6.4 | 0.10 | 0.66 | 0.56 | 96 | 1010.3 |
| 20260509160510 | 8 | 354 | 0.0 | 8.0 | 0.13 | 0.66 | 0.56 | 96 | 1010.4 |
| 20260509160017 | 8 | 222 | 1.6 | 8.0 | 0.10 | 0.64 | 0.53 | 96 | 1010.4 |
| 20260509155526 | 8 | 20 | 0.0 | 6.4 | 0.13 | 0.64 | 0.53 | 96 | 1010.6 |
| 20260509155014 | 8 | 26 | 0.0 | 4.8 | 0.13 | 0.64 | 0.53 | 96 | 1010.6 |
| 20260509154516 | 7 | 307 | 0.0 | 11.3 | 0.13 | 0.61 | 0.51 | 96 | 1010.7 |
| 20260509154021 | 7 | 75 | 1.6 | 11.3 | 0.13 | 0.61 | 0.51 | 96 | 1010.7 |
| 20260509153510 | 7 | 69 | 0.0 | 9.7 | 0.10 | 0.58 | 0.48 | 96 | 1010.8 |
| 20260509153020 | 7 | 89 | 1.6 | 11.3 | 0.13 | 0.58 | 0.48 | 96 | 1010.8 |
| 20260509152525 | 7 | 211 | 1.6 | 11.3 | 0.13 | 0.58 | 0.48 | 96 | 1010.9 |
| 20260509152014 | 7 | 63 | 0.0 | 4.8 | 0.10 | 0.56 | 0.46 | 96 | 1011.0 |
| 20260509151519 | 7 | 49 | 0.0 | 4.8 | 0.13 | 0.56 | 0.46 | 96 | 1011.1 |
| 20260509151022 | 7 | 21 | 0.0 | 4.8 | 0.13 | 0.56 | 0.46 | 96 | 1011.3 |
| 20260509150529 | 7 | 309 | 1.6 | 4.8 | 0.10 | 0.53 | 0.43 | 96 | 1011.2 |
| 20260509150012 | 6 | 290 | 0.0 | 4.8 | 0.10 | 0.53 | 0.43 | 96 | 1011.3 |
| 20260509145517 | 6 | 262 | 1.6 | 8.0 | 0.08 | 0.51 | 0.41 | 96 | 1011.4 |
| 20260509145022 | 6 | 280 | 4.8 | 8.0 | 0.08 | 0.51 | 0.41 | 96 | 1011.3 |
| 20260509144524 | 6 | 291 | 0.0 | 3.2 | 0.08 | 0.48 | 0.38 | 96 | 1011.3 |
| 20260509144010 | 6 | 290 | 0.0 | 4.8 | 0.08 | 0.48 | 0.38 | 96 | 1011.3 |
| 20260509143520 | 6 | 287 | 0.0 | 4.8 | 0.05 | 0.46 | 0.36 | 96 | 1011.2 |
| 20260509143025 | 6 | 293 | 0.0 | 3.2 | 0.05 | 0.46 | 0.36 | 96 | 1011.3 |
| 20260509142509 | 6 | 288 | 1.6 | 4.8 | 0.05 | 0.46 | 0.36 | 96 | 1011.3 |
| 20260509142013 | 6 | 300 | 1.6 | 4.8 | 0.08 | 0.46 | 0.36 | 96 | 1011.3 |
| 20260509141526 | 6 | 287 | 0.0 | 4.8 | 0.05 | 0.43 | 0.33 | 95 | 1011.3 |
| 20260509141013 | 6 | 295 | 1.6 | 4.8 | 0.05 | 0.43 | 0.33 | 95 | 1011.2 |
| 20260509140517 | 6 | 290 | 1.6 | 3.2 | 0.08 | 0.43 | 0.33 | 95 | 1011.1 |
| 20260509140022 | 6 | 298 | 0.0 | 4.8 | 0.08 | 0.43 | 0.33 | 95 | 1011.1 |
| 20260509135509 | 6 | 281 | 1.6 | 4.8 | 0.10 | 0.43 | 0.33 | 95 | 1011.2 |
| 20260509135017 | 6 | 292 | 0.0 | 3.2 | 0.10 | 0.43 | 0.33 | 95 | 1011.1 |
| 20260509134506 | 6 | 303 | 0.0 | 1.6 | 0.10 | 0.41 | 0.30 | 95 | 1011.2 |
| 20260509134013 | 6 | 303 | 0.0 | 1.6 | 0.13 | 0.41 | 0.30 | 95 | 1011.2 |
| 20260509133525 | 5 | 301 | 0.0 | 0.0 | 0.13 | 0.41 | 0.30 | 95 | 1011.3 |
| 20260509133010 | 5 | 301 | 0.0 | 3.2 | 0.15 | 0.41 | 0.30 | 95 | 1011.3 |
| 20260509132524 | 5 | 301 | 0.0 | 6.4 | 0.15 | 0.41 | 0.30 | 95 | 1011.4 |
| 20260509132004 | 5 | 300 | 0.0 | 6.4 | 0.15 | 0.38 | 0.28 | 95 | 1011.3 |
| 20260509131522 | 5 | 295 | 1.6 | 6.4 | 0.15 | 0.38 | 0.28 | 95 | 1011.4 |
| 20260509131019 | 5 | 297 | 0.0 | 0.0 | 0.15 | 0.38 | 0.28 | 94 | 1011.4 |
| 20260509130523 | 5 | 297 | 0.0 | 3.2 | 0.13 | 0.36 | 0.25 | 94 | 1011.4 |
| 20260509130016 | 5 | 297 | 0.0 | 3.2 | 0.13 | 0.36 | 0.25 | 94 | 1011.5 |
| 20260509125516 | 5 | 351 | 0.0 | 1.6 | 0.13 | 0.33 | 0.23 | 94 | 1011.4 |
| 20260509125017 | 5 | 352 | 0.0 | 1.6 | 0.13 | 0.33 | 0.23 | 94 | 1011.5 |
| 20260509124525 | 5 | 355 | 0.0 | 0.0 | 0.10 | 0.30 | 0.20 | 94 | 1011.4 |
| 20260509124010 | 5 | 301 | 0.0 | 3.2 | 0.08 | 0.28 | 0.18 | 93 | 1011.5 |
| 20260509123521 | 5 | 300 | 0.0 | 3.2 | 0.10 | 0.28 | 0.18 | 94 | 1011.5 |
| 20260509123026 | 5 | 98 | 0.0 | 3.2 | 0.08 | 0.25 | 0.15 | 93 | 1011.6 |
| 20260509122514 | 5 | 79 | 1.6 | 3.2 | 0.08 | 0.25 | 0.15 | 94 | 1011.5 |
| 20260509121529 | 5 | 340 | 0.0 | 1.6 | 0.05 | 0.23 | 0.13 | 93 | 1011.5 |
| 20260509121027 | 5 | 301 | 0.0 | 4.8 | 0.05 | 0.23 | 0.13 | 93 | 1011.5 |
| 20260509120528 | 5 | 304 | 1.6 | 4.8 | 0.05 | 0.23 | 0.13 | 93 | 1011.5 |
| 20260509120025 | 5 | 94 | 0.0 | 3.2 | 0.05 | 0.23 | 0.13 | 93 | 1011.5 |
| 20260509115526 | 5 | 66 | 0.0 | 1.6 | 0.03 | 0.20 | 0.10 | 93 | 1011.6 |
| 20260509115025 | 5 | 32 | 0.0 | 1.6 | 0.03 | 0.20 | 0.10 | 93 | 1011.5 |
| 20260509114525 | 5 | 32 | 0.0 | 1.6 | 0.03 | 0.20 | 0.10 | 93 | 1011.5 |
| 20260509114027 | 5 | 86 | 0.0 | 1.6 | 0.03 | 0.20 | 0.10 | 93 | 1011.6 |
| 20260509113525 | 5 | 86 | 0.0 | 3.2 | 0.00 | 0.18 | 0.08 | 93 | 1011.5 |
| 20260509113025 | 5 | 342 | 0.0 | 3.2 | 0.00 | 0.18 | 0.08 | 93 | 1011.5 |
| 20260509112523 | 5 | 79 | 0.0 | 3.2 | 0.03 | 0.18 | 0.08 | 93 | 1011.5 |
| 20260509112023 | 4 | 78 | 0.0 | 3.2 | 0.03 | 0.18 | 0.08 | 92 | 1011.6 |
| 20260509111523 | 4 | 78 | 0.0 | 3.2 | 0.03 | 0.18 | 0.08 | 92 | 1011.6 |
| 20260509111022 | 4 | 245 | 0.0 | 1.6 | 0.03 | 0.18 | 0.08 | 92 | 1011.6 |
| 20260509110524 | 4 | 245 | 0.0 | 3.2 | 0.03 | 0.18 | 0.08 | 92 | 1011.6 |
| 20260509110022 | 4 | 245 | 0.0 | 3.2 | 0.03 | 0.18 | 0.08 | 92 | 1011.4 |
| 20260509105524 | 4 | 101 | 0.0 | 3.2 | 0.03 | 0.18 | 0.08 | 92 | 1011.4 |
| 20260509105021 | 4 | 5 | 0.0 | 3.2 | 0.03 | 0.18 | 0.08 | 92 | 1011.4 |
| 20260509104522 | 4 | 13 | 0.0 | 3.2 | 0.03 | 0.18 | 0.08 | 92 | 1011.4 |
| 20260509104021 | 4 | 143 | 0.0 | 8.0 | 0.03 | 0.18 | 0.08 | 92 | 1011.3 |
| 20260509103521 | 4 | 317 | 1.6 | 8.0 | 0.03 | 0.18 | 0.08 | 92 | 1011.3 |
| 20260509103021 | 4 | 96 | 0.0 | 6.4 | 0.05 | 0.18 | 0.08 | 92 | 1011.2 |
| 20260509102521 | 4 | 309 | 0.0 | 6.4 | 0.03 | 0.15 | 0.05 | 92 | 1011.3 |
| 20260509102019 | 4 | 301 | 1.6 | 6.4 | 0.03 | 0.15 | 0.05 | 92 | 1011.2 |
| 20260509101518 | 5 | 111 | 0.0 | 1.6 | 0.03 | 0.15 | 0.05 | 92 | 1011.2 |
| 20260509101017 | 4 | 112 | 0.0 | 1.6 | 0.03 | 0.15 | 0.05 | 92 | 1011.4 |
| 20260509100516 | 4 | 111 | 0.0 | 1.6 | 0.03 | 0.15 | 0.05 | 91 | 1011.6 |
| 20260509100017 | 4 | 111 | 0.0 | 1.6 | 0.03 | 0.15 | 0.05 | 91 | 1011.6 |
| 20260509095516 | 4 | 111 | 0.0 | 1.6 | 0.05 | 0.15 | 0.05 | 91 | 1011.8 |
| 20260509095015 | 4 | 95 | 0.0 | 0.0 | 0.05 | 0.15 | 0.05 | 90 | 1011.8 |
| 20260509094515 | 4 | 94 | 0.0 | 0.0 | 0.05 | 0.15 | 0.05 | 90 | 1011.8 |
| 20260509094015 | 4 | 95 | 0.0 | 0.0 | 0.05 | 0.15 | 0.05 | 90 | 1011.8 |
| 20260509093517 | 4 | 95 | 0.0 | 0.0 | 0.05 | 0.15 | 0.05 | 89 | 1011.8 |
| 20260509093015 | 4 | 94 | 0.0 | 1.6 | 0.03 | 0.13 | 0.03 | 89 | 1011.8 |
| 20260509092514 | 4 | 29 | 0.0 | 6.4 | 0.03 | 0.13 | 0.03 | 88 | 1011.7 |
| 20260509092012 | 4 | 82 | 0.0 | 8.0 | 0.03 | 0.13 | 0.03 | 88 | 1011.6 |
| 20260509091520 | 4 | 312 | 0.0 | 3.2 | 0.03 | 0.13 | 0.03 | 87 | 1011.7 |
| 20260509091011 | 4 | 1 | 0.0 | 6.4 | 0.03 | 0.13 | 0.03 | 86 | 1011.8 |
| 20260509090511 | 5 | 326 | 0.0 | 4.8 | 0.03 | 0.13 | 0.03 | 85 | 1011.8 |
| 20260509090009 | 5 | 253 | 0.0 | 8.0 | 0.03 | 0.13 | 0.03 | 84 | 1011.9 |
| 20260509085508 | 5 | 20 | 1.6 | 8.0 | 0.00 | 0.10 | 0.00 | 83 | 1011.8 |
| 20260509085007 | 5 | 58 | 1.6 | 8.0 | 0.00 | 0.10 | 0.00 | 81 | 1011.8 |
| 20260509084516 | 5 | 72 | 1.6 | 9.7 | 0.00 | 0.10 | 0.00 | 79 | 1011.9 |
| 20260509084005 | 5 | 68 | 0.0 | 8.0 | 0.00 | 0.10 | 0.00 | 76 | 1011.9 |
| 20260509083504 | 6 | 71 | 0.0 | 8.0 | 0.00 | 0.10 | 0.00 | 73 | 1012.0 |
| 20260509083003 | 6 | 60 | 1.6 | 6.4 | 0.00 | 0.10 | 0.00 | 70 | 1012.1 |
| 20260509082503 | 6 | 72 | 1.6 | 9.7 | 0.00 | 0.10 | 0.00 | 68 | 1012.1 |
| 20260509082002 | 6 | 116 | 0.0 | 11.3 | 0.00 | 0.10 | 0.00 | 66 | 1012.1 |
| 20260509081502 | 6 | 72 | 3.2 | 11.3 | 0.00 | 0.10 | 0.00 | 65 | 1012.1 |
| 20260509081002 | 6 | 75 | 4.8 | 12.9 | 0.00 | 0.10 | 0.00 | 65 | 1012.1 |
| 20260509080501 | 7 | 78 | 3.2 | 19.3 | 0.00 | 0.10 | 0.00 | 64 | 1012.0 |
| 20260509080001 | 7 | 46 | 9.7 | 19.3 | 0.00 | 0.10 | 0.00 | 64 | 1011.9 |
| 20260509075600 | 7 | 42 | 4.8 | 14.5 | 0.00 | 0.10 | 0.00 | 65 | 1011.9 |
| 20260509075100 | 6 | 68 | 4.8 | 14.5 | 0.00 | 0.10 | 0.00 | 65 | 1011.8 |
| 20260509074600 | 6 | 65 | 4.8 | 14.5 | 0.00 | 0.10 | 0.00 | 65 | 1011.8 |
| 20260509074059 | 6 | 91 | 3.2 | 16.1 | 0.00 | 0.10 | 0.00 | 65 | 1011.8 |
| 20260509073558 | 6 | 79 | 4.8 | 16.1 | 0.00 | 0.10 | 0.00 | 65 | 1012.0 |
| 20260509073206 | 6 | 86 | 4.8 | 16.1 | 0.00 | 0.10 | 0.00 | 67 | 1012.0 |
| 20260509072556 | 6 | 84 | 1.6 | 6.4 | 0.00 | 0.10 | 0.00 | 67 | 1011.9 |
| 20260509072055 | 6 | 82 | 0.0 | 8.0 | 0.00 | 0.10 | 0.00 | 68 | 1011.9 |
| 20260509071555 | 6 | 152 | 0.0 | 8.0 | 0.00 | 0.10 | 0.00 | 68 | 1011.9 |
| 20260509071054 | 6 | 287 | 0.0 | 3.2 | 0.00 | 0.10 | 0.00 | 68 | 1012.0 |
| 20260509070554 | 6 | 36 | 0.0 | 4.8 | 0.00 | 0.10 | 0.00 | 67 | 1012.0 |
| 20260509070054 | 6 | 91 | 1.6 | 4.8 | 0.00 | 0.10 | 0.00 | 66 | 1012.0 |
| 20260509065552 | 5 | 98 | 0.0 | 4.8 | 0.00 | 0.10 | 0.00 | 67 | 1012.0 |
| 20260509065052 | 6 | 44 | 0.0 | 4.8 | 0.00 | 0.10 | 0.00 | 66 | 1012.1 |
| 20260509064552 | 6 | 82 | 0.0 | 8.0 | 0.00 | 0.10 | 0.00 | 65 | 1012.0 |
| 20260509064051 | 6 | 82 | 1.6 | 9.7 | 0.00 | 0.10 | 0.00 | 64 | 1012.0 |
| 20260509063551 | 5 | 84 | 4.8 | 9.7 | 0.00 | 0.10 | 0.00 | 65 | 1012.0 |
| 20260509063050 | 5 | 80 | 3.2 | 6.4 | 0.00 | 0.10 | 0.00 | 68 | 1012.1 |
| 20260509062549 | 5 | 95 | 0.0 | 1.6 | 0.00 | 0.10 | 0.00 | 70 | 1012.2 |
| 20260509062047 | 5 | 94 | 1.6 | 1.6 | 0.00 | 0.10 | 0.00 | 71 | 1012.2 |
| 20260509061554 | 4 | 94 | 0.0 | 1.6 | 0.00 | 0.10 | 0.00 | 70 | 1012.3 |